NapervilleWeather.com

Find the Weather for any City, State  
or Zipcode, or Country:

Naperville, IL Weather
Local Radar

Local Radar

Graphs, Details
Graphs and Gauges
Detailed Weather
Detailed Reports
Ajax Version (old)
Davis Summary
Davis Current Weather Graphs
Davis 24 Hour Weather History
Cumulus

CW7164 Data

Weather Underground
www.awekas.at
Automatic Weather Map System
Latest Naperville, Illinois, weather
Weather For You
Maps
Temperature
Heat Index
Windchill
Humidity
Radar
Dew Point
Wind
Visibility
Visible Satellite
Satellite
Fronts
Snow Depth
Jet Stream
Flight Rules
Forecast Maps
Temperature Forecast
Maximum Temperature Forecast
Minimum Temperature Forecast
Dewpoint Forecast
Prevalent Weather
12Hr Probability of Precip.
Sky Cover
Health Maps
UV Forecast
Air Quality
Peak Air Quality Index
Weather Station
Davis Instruments Vantage Pro2
Current Conditions [Select Refresh to Update]

Updated: 3:11am on 3/27/15

(location)
Currently:
29.8°F

Clear
Overcast

High: 32.8 °F< 
(12:00am
Low: 29.8 °F 
(2:56am)
Wind: NNW 0 mph
Calm
Gust: 1 mph
Today's High Wind: 11 mph (12:23am)
Humidity: 62%
Pressure: 30.11 in  (Steady
Pressure Rate: -0.001 in/hr
Dew Point: 18.4°F
Wind Chill: 29.8 °F
Heat Index (feels like): 31.8 °F
Comfort Level: Uncomfortably Cold
Temperature Rate:  -0.89°F/hr
 
5 Day Forecast
 
Fri Sat Sun Mon Tue
Clear Clear Clear Clear Clear
Mostly Cloudy Partly Cloudy Chance Sleet Mostly Cloudy Mostly Cloudy
32 37 44 52 58
15 24 32 37 40

Records and Normals
 
Temperature Forecast Normal Record
High 32 53 76
(2007)
Low 15 32 15
(2011)
 
 
Weather Advisories
No Warnings
Full Advisory Text...
Weather Map

Web Cam

Almanac
 
Sunrise:  
6:42am
Moonrise: 
12:15pm

Moon Phase:
49%

Sunset: 
7:10pm
Moonset:  
2:07am
 Star Chart...
Rainfall Totals
Hourly Rain 0.00 in
Daily Rain: 0.00 in
Monthly Rain: 0.82 in
Yearly Rain: 2.57 in
Normal Rain, month to date: 0.48 in
Normal Rain, year to date: 2.31 in
Local Weather Exchange Network
Station ID City 
(Click for Map Location)
Neighborhood 
(Click for History)
Last Update (Date & Time) Temperature
 ()
Dew
Point ()
Humidity 
(%)
Wind 
(mph)
from the Wind Gust 
(mph) 
Pressure(in) Hourly
Rain(in)
KILWARRE5 Warrenville Briergate Drive 03/27 02:56:50 34.3 19.0 54 0 North 0 30.12 0.00
KILNAPER40 Naperville Downtown 03/27 02:56:46 30.9 20.0 63 0 North 0 30.13 0.00
KILNAPER15 Naperville Indian Hill Near Jefferson JHS 03/27 02:59:33 30.0 20.0 66 2 NW 6 30.08 0.00
KILNAPER21 Naperville Saybrook 03/27 02:30:16 30.0 20.0 66 3 North 8 30.11 0.00
KILNAPER33 Naperville Downtown 03/27 02:56:51 30.6 26.0 84 0 North 0 29.98 0.00
KILNAPER28 Naperville Pawnee Lane 03/27 02:56:24 33.4 18.0 54 0 North 0 30.12 0.00
KILNAPER25 Naperville brushhill-w 03/27 02:46:53 30.9 20.0 63 3 WNW 4 30.07 0.00
KILNAPER24 Naperville Brush Hill 03/27 02:45:43 30.6 20.0 65 1 NW 4 30.03 0.00
KILNAPER34 Naperville Downtown 03/27 02:56:43 30.9 18.0 59 0 North 0 29.68 0.00
KILNAPER19 Naperville Brookdale Lakes 03/27 02:59:41 29.9 21.0 68 1 WSW 3 30.03 0.00
KILNAPER7 Naperville NapervilleWeather.com Near Ogden and Naper Blvd 03/27 02:59:44 29.8 18.0 62 0 West 6 30.11 0.00
KILWARRE2 Warrenville Warrenville Neighborhood Weather 03/27 02:57:39 30.1 21.0 69 0 NNW 0 30.06 0.00
KILNAPER42 Naperville Savannah Circle 03/27 02:57:05 31.6 18.0 58 0 North 0 30.13 0.00
KILNAPER31 Naperville Savannah Circle 03/27 02:56:32 30.9 19.0 60 0 North 0 29.91 0.00
KILNAPER38 Naperville East Highlands 03/27 02:59:29 31.1 18.0 57 0 NW 0 30.25 0.00
KILNAPER23 Naperville Naper Blvd at BNSF RR 03/27 02:59:29 28.8 20.0 70 1 NE 1 30.10 0.00
KILNAPER30 Naperville Cypress Drive 03/27 02:56:19 32.9 18.0 54 0 North 0 29.90 0.00
KILLISLE10 Lisle Maple Avenue 03/27 02:56:35 31.5 19.0 59 0 North 0 30.14 0.00
KILNAPER46 Naperville Hilton Head Drive 03/27 02:57:01 30.9 19.0 60 0 North 0 30.10 0.00
KILLISLE9 Lisle Park Meadow Drive 03/27 02:56:20 33.3 20.0 57 0 North 0 30.08 0.00
KILWARRE6 Warrenville Summer Lakes 03/27 02:57:01 29.2 20.0 69 0 NW 3 30.09 0.00
KILNAPER56 Naperville Ann Reid ECC 03/27 02:56:32 29.3 18.0 62 2 North 0 29.83 0.00
KILNAPER9 Naperville 75th St. / Modaff Area 03/27 02:59:48 29.9 21.0 68 0 SSW 0 30.08 0.00
KILLISLE7 Lisle Beau Monde Drive 03/27 02:56:13 30.0 19.0 64 0 North 0 30.11 0.00
KILNAPER53 Naperville Bovidae Circle 03/27 02:56:53 33.6 22.0 62 0 North 0 29.37 0.00
KILWHEAT11 Wheaton Wheaton SW Orth Ct 03/27 02:59:41 32.8 20.0 59 0 NNE 1 30.15 0.00
KILLOMBA6 Wheaton Danada West 03/27 02:59:11 29.4 19.0 65 2 NE 7 30.06 0.00
KILAUROR27 Aurora Stonehaven 03/27 02:59:37 29.7 21.0 69 7 NNW 0 29.91 0.00
KILNAPER35 Naperville Nutmeg Lane 03/27 02:56:39 30.4 20.0 64 0 North 0 30.12 0.00
KILNAPER16 Naperville SE Naperville / NE Clow Arpt 03/27 02:59:30 30.1 20.0 66 1 NNE 6 30.10 0.00
KILNAPER51 Naperville Glouceston Lane 03/27 02:56:31 30.6 21.0 68 0 North 0 29.89 0.00
KILNAPER22 Naperville Willow Ridge 03/27 02:59:42 29.8 20.0 68 0 NE 0 29.88 0.00
KILNAPER50 Naperville Sutton Circle 03/27 02:56:25 30.7 18.0 59 0 North 0 30.07 0.00
KILWHEAT5 Wheaton N9ABF - West Wheaton 03/27 02:50:11 29.7 20.0 66 7 NNE 0 30.03 0.00
KILGLENE9 Glen Ellyn Valley View 03/27 02:58:02 28.8 20.0 69 2 NNW 0 29.93 0.00
KILNAPER26 Naperville Landore Drive 03/27 02:56:16 32.5 19.0 57 0 North 0 30.07 0.00
KILWINFI2 Winfield Winfield Heights (SarahNet) 03/27 02:58:48 29.2 21.0 72 0 North 8 30.09 0.00
KILNAPER37 Naperville Conan Doyle Road 03/27 02:56:39 30.6 18.0 60 0 North 0 30.04 0.00
KILWOODR4 Woodridge Woodridge Neighborhood Weather 03/27 02:57:11 30.7 19.0 63 6 North 8 30.07 0.00
KDPA Chicago DuPage Official Station 03/27 02:52:00 29.0 19.0 67 14 North --- 30.09 ---
Full Advisory Text
No Warnings

Ambient Weather and Weather Underground
 Never base important decisions on this or any weather information obtained from the Internet
Updated Automatically by Ambient Weather's Virtual Weather Station  V14.01